Location: Norderney
(53.7000°N, 7.1500°E)
Time: 16:32:06
(UTC+02:00)

ISS - Pass Details

Date: 02 July 2021
Orbit: 419 x 421 km, 51.6° (Epoch: 27 July)

Event Time Altitude Azimuth Distance (km) Brightness Sun altitude
Exits shadow 03:34:04 10° 176° (S) 1,530 -1.4 -9.1°
Reaches altitude 10° 03:34:13 10° 174° (S) 1,497 -1.5 -9.1°
Maximum altitude 03:35:58 14° 142° (SE) 1,299 -1.5 -9.0°
Drops below altitude 10° 03:37:43 10° 111° (ESE) 1,501 -0.8 -8.9°
Sets 03:40:37 0° 84° (E) 2,369 0.6 -8.6°
